When you browse on this site, cookies collect data to enhance your experience and personalize the content and advertising you see.
Visit our Privacy Policy to learn more. By continuing to use the site, you agree to this use of cookies and data.
  • In Netherlands
  • List of Countries
  • For 7 days
  • Water Temperature
  • Satellite Maps
  • Weather Map
  • Weather Widgets
  • user-avatar
    Login

    Hourly Weather Oran

    Today, 17 January, Thursday

    Time Temperature Precipitation Wind Pressure Humidity
    00:00 +11°C° 0 mm 3 mps 752 mmHg 85%
    01:00 +10°C° 0 mm 3 mps 752 mmHg 84%
    02:00 +10°C° 0 mm 3 mps 752 mmHg 84%
    03:00 +10°C° 0 mm 3 mps 752 mmHg 83%
    04:00 +10°C° 0 mm 3 mps 752 mmHg 82%
    05:00 +10°C° 0 mm 3 mps 752 mmHg 81%
    06:00 +9°C° 0 mm 3 mps 752 mmHg 80%
    07:00 +10°C° 0 mm 3 mps 752 mmHg 73%
    08:00 +12°C° 0 mm 3 mps 752 mmHg 67%
    09:00 +13°C° 0 mm 3 mps 752 mmHg 60%
    10:00 +14°C° 0 mm 3 mps 752 mmHg 54%
    11:00 +15°C° 0 mm 4 mps 752 mmHg 48%
    12:00 +17°C° 0 mm 4 mps 752 mmHg 43%
    13:00 +17°C° 0 mm 4 mps 752 mmHg 43%
    14:00 +17°C° 0 mm 4 mps 751 mmHg 44%
    15:00 +16°C° 0 mm 5 mps 751 mmHg 44%
    16:00 +15°C° 0.1 mm 4 mps 751 mmHg 50%
    17:00 +14°C° 0.1 mm 4 mps 751 mmHg 57%
    18:00 +13°C° 0.1 mm 4 mps 751 mmHg 63%
    19:00 +12°C° 0.2 mm 3 mps 752 mmHg 66%
    20:00 +12°C° 0.2 mm 3 mps 752 mmHg 68%
    21:00 +13°C° 0.2 mm 2 mps 752 mmHg 71%
    22:00 +13°C° 0.3 mm 2 mps 752 mmHg 71%
    23:00 +13°C° 0.3 mm 2 mps 752 mmHg 71%

    Tomorrow, 18 January, Friday

    Time Temperature Precipitation Wind Pressure Humidity
    00:00 +12°C° 0.3 mm 2 mps 752 mmHg 70%
    01:00 +12°C° 0.2 mm 2 mps 752 mmHg 70%
    02:00 +12°C° 0.2 mm 2 mps 752 mmHg 70%
    03:00 +12°C° 0.2 mm 2 mps 752 mmHg 70%
    04:00 +12°C° 0.1 mm 2 mps 753 mmHg 72%
    05:00 +11°C° 0.1 mm 3 mps 753 mmHg 73%
    06:00 +10°C° 0.1 mm 3 mps 753 mmHg 74%
    07:00 +11°C° 0.1 mm 3 mps 753 mmHg 71%
    08:00 +12°C° 0.1 mm 3 mps 753 mmHg 67%
    09:00 +13°C° 0.1 mm 3 mps 754 mmHg 64%
    10:00 +14°C° 0.1 mm 4 mps 754 mmHg 60%
    11:00 +15°C° 0.1 mm 5 mps 754 mmHg 57%
    12:00 +16°C° 0.1 mm 5 mps 753 mmHg 54%
    13:00 +15°C° 0.2 mm 6 mps 753 mmHg 55%
    14:00 +15°C° 0.2 mm 6 mps 753 mmHg 56%
    15:00 +15°C° 0.2 mm 6 mps 752 mmHg 57%
    16:00 +14°C° 0.1 mm 5 mps 753 mmHg 62%
    17:00 +13°C° 0.1 mm 4 mps 753 mmHg 67%
    18:00 +12°C° 0.1 mm 3 mps 753 mmHg 73%
    19:00 +12°C° 0.3 mm 3 mps 754 mmHg 73%
    20:00 +12°C° 0.3 mm 3 mps 754 mmHg 74%
    21:00 +12°C° 0.3 mm 3 mps 755 mmHg 74%
    22:00 +12°C° 0.2 mm 3 mps 754 mmHg 76%
    23:00 +11°C° 0.2 mm 4 mps 754 mmHg 77%

    Day after tomorrow, 19 January, Saturday

    Time Temperature Precipitation Wind Pressure Humidity
    00:00 +11°C° 0.2 mm 4 mps 754 mmHg 79%
    01:00 +11°C° 0.1 mm 4 mps 754 mmHg 80%
    02:00 +11°C° 0.1 mm 4 mps 754 mmHg 81%
    03:00 +9°C° 0.1 mm 5 mps 754 mmHg 82%
    04:00 +9°C° 0.3 mm 5 mps 754 mmHg 81%
    05:00 +10°C° 0.3 mm 6 mps 754 mmHg 80%
    06:00 +10°C° 0.3 mm 6 mps 754 mmHg 79%
    07:00 +11°C° 0.1 mm 7 mps 754 mmHg 76%
    08:00 +11°C° 0.1 mm 8 mps 754 mmHg 73%
    09:00 +12°C° 0.1 mm 9 mps 754 mmHg 71%
    10:00 +12°C° 0.1 mm 9 mps 754 mmHg 69%
    11:00 +13°C° 0.1 mm 10 mps 754 mmHg 67%
    12:00 +13°C° 0.1 mm 11 mps 754 mmHg 65%
    13:00 +13°C° 0.1 mm 11 mps 753 mmHg 64%
    14:00 +13°C° 0.1 mm 11 mps 753 mmHg 63%
    15:00 +13°C° 0.1 mm 11 mps 752 mmHg 62%
    16:00 +13°C° 0.1 mm 10 mps 752 mmHg 65%
    17:00 +13°C° 0.1 mm 10 mps 753 mmHg 68%
    18:00 +12°C° 0.1 mm 9 mps 753 mmHg 71%
    19:00 +12°C° 0.5 mm 9 mps 753 mmHg 74%
    20:00 +12°C° 0.5 mm 9 mps 753 mmHg 77%
    21:00 +12°C° 0.5 mm 8 mps 753 mmHg 79%
    22:00 +12°C° 0.1 mm 8 mps 752 mmHg 77%
    23:00 +11°C° 0.1 mm 8 mps 752 mmHg 75%

    20 January, Sunday

    Time Temperature Precipitation Wind Pressure Humidity
    00:00 +11°C° 0.1 mm 8 mps 751 mmHg 73%
    01:00 +11°C° 0.2 mm 8 mps 751 mmHg 74%
    02:00 +11°C° 0.2 mm 8 mps 750 mmHg 75%
    03:00 +11°C° 0.2 mm 8 mps 750 mmHg 76%
    04:00 +11°C° 0.2 mm 9 mps 750 mmHg 76%
    05:00 +12°C° 0.2 mm 10 mps 749 mmHg 77%
    06:00 +12°C° 0.2 mm 10 mps 749 mmHg 77%
    07:00 +12°C° 1.5 mm 11 mps 750 mmHg 76%
    08:00 +13°C° 1.5 mm 11 mps 750 mmHg 74%
    09:00 +13°C° 1.5 mm 12 mps 750 mmHg 73%
    10:00 +14°C° 1.3 mm 12 mps 750 mmHg 70%
    11:00 +14°C° 1.3 mm 12 mps 750 mmHg 67%
    12:00 +14°C° 1.3 mm 12 mps 751 mmHg 64%
    13:00 +14°C° 1 mm 11 mps 751 mmHg 67%
    14:00 +14°C° 1 mm 10 mps 751 mmHg 69%
    15:00 +13°C° 1 mm 10 mps 750 mmHg 72%
    16:00 +13°C° 1.1 mm 8 mps 751 mmHg 74%
    17:00 +12°C° 1.1 mm 7 mps 752 mmHg 76%
    18:00 +13°C° 1.1 mm 6 mps 752 mmHg 78%
    19:00 +13°C° 0.7 mm 5 mps 753 mmHg 77%
    20:00 +13°C° 0.7 mm 5 mps 753 mmHg 76%
    21:00 +13°C° 0.7 mm 4 mps 754 mmHg 75%
    22:00 +13°C° 0.2 mm 4 mps 754 mmHg 76%
    23:00 +12°C° 0.2 mm 4 mps 754 mmHg 76%

    21 January, Monday

    Time Temperature Precipitation Wind Pressure Humidity
    00:00 +12°C° 0.2 mm 4 mps 754 mmHg 76%
    01:00 +11°C° 0.2 mm 3 mps 754 mmHg 79%
    02:00 +11°C° 0.2 mm 3 mps 754 mmHg 81%
    03:00 +10°C° 0.2 mm 3 mps 754 mmHg 84%
    04:00 +10°C° 0.1 mm 3 mps 755 mmHg 83%
    05:00 +10°C° 0.1 mm 3 mps 755 mmHg 82%
    06:00 +10°C° 0.1 mm 3 mps 755 mmHg 81%
    07:00 +11°C° 0.1 mm 4 mps 755 mmHg 76%
    08:00 +12°C° 0.1 mm 4 mps 756 mmHg 71%
    09:00 +12°C° 0.1 mm 5 mps 756 mmHg 66%
    10:00 +13°C° 0 mm 5 mps 757 mmHg 63%
    11:00 +13°C° 0 mm 6 mps 757 mmHg 60%
    12:00 +13°C° 0 mm 6 mps 757 mmHg 57%
    13:00 +13°C° 0 mm 6 mps 756 mmHg 56%
    14:00 +12°C° 0 mm 7 mps 756 mmHg 56%
    15:00 +12°C° 0 mm 7 mps 756 mmHg 56%
    16:00 +11°C° 0 mm 6 mps 756 mmHg 61%
    17:00 +12°C° 0 mm 5 mps 756 mmHg 65%
    18:00 +11°C° 0 mm 4 mps 756 mmHg 70%
    19:00 +10°C° 0.1 mm 4 mps 757 mmHg 72%
    20:00 +10°C° 0.1 mm 3 mps 757 mmHg 74%
    21:00 +10°C° 0.1 mm 2 mps 757 mmHg 76%
    22:00 +10°C° 0.1 mm 2 mps 757 mmHg 76%
    23:00 +9°C° 0.1 mm 3 mps 757 mmHg 76%

    22 January, Tuesday

    Time Temperature Precipitation Wind Pressure Humidity
    00:00 +9°C° 0.1 mm 3 mps 757 mmHg 77%
    01:00 +9°C° 0.1 mm 3 mps 756 mmHg 75%
    02:00 +9°C° 0.1 mm 3 mps 756 mmHg 74%
    03:00 +9°C° 0.1 mm 3 mps 756 mmHg 72%
    04:00 +9°C° 0 mm 3 mps 756 mmHg 72%
    05:00 +9°C° 0 mm 3 mps 755 mmHg 72%
    06:00 +9°C° 0 mm 3 mps 755 mmHg 71%
    07:00 +10°C° 0 mm 4 mps 755 mmHg 68%
    08:00 +9°C° 0 mm 5 mps 755 mmHg 64%
    09:00 +10°C° 0 mm 5 mps 755 mmHg 61%
    10:00 +11°C° 0.1 mm 7 mps 755 mmHg 58%
    11:00 +12°C° 0.1 mm 9 mps 754 mmHg 55%
    12:00 +13°C° 0.1 mm 11 mps 754 mmHg 52%
    13:00 +13°C° 0 mm 12 mps 753 mmHg 53%
    14:00 +13°C° 0 mm 12 mps 751 mmHg 54%
    15:00 +13°C° 0 mm 13 mps 750 mmHg 55%
    16:00 +12°C° 0 mm 12 mps 750 mmHg 57%
    17:00 +12°C° 0 mm 12 mps 750 mmHg 59%
    18:00 +10°C° 0 mm 12 mps 749 mmHg 60%
    19:00 +10°C° 0 mm 12 mps 749 mmHg 62%
    20:00 +10°C° 0 mm 13 mps 749 mmHg 63%
    21:00 +12°C° 0 mm 14 mps 748 mmHg 65%
    22:00 +10°C° 0.5 mm 14 mps 748 mmHg 68%
    23:00 +10°C° 0.5 mm 15 mps 747 mmHg 71%
    Show more